TimeCST,TemperatureF,Dew PointF,Humidity,Sea Level PressureIn,VisibilityMPH,Wind Direction,Wind SpeedMPH,Gust SpeedMPH,PrecipitationIn,Events,Conditions,WindDirDegrees,DateUTC
12:52 AM,24.1,21.9,91,29.95,-9999.0,ENE,11.5,20.7,N/A,,Unknown,60,2012-11-10 06:52:00
1:52 AM,24.1,21.9,91,29.91,-9999.0,ENE,12.7,19.6,0.02,,Unknown,60,2012-11-10 07:52:00
2:52 AM,23.0,21.9,96,29.90,-9999.0,ENE,13.8,20.7,0.01,,Unknown,60,2012-11-10 08:52:00
3:52 AM,23.0,21.0,92,29.83,-9999.0,ENE,16.1,26.5,0.01,,Unknown,60,2012-11-10 09:52:00
4:52 AM,23.0,21.0,92,29.88,-9999.0,NE,8.1,16.1,N/A,,Unknown,40,2012-11-10 10:52:00
5:52 AM,23.0,19.9,88,29.86,-9999.0,NE,11.5,18.4,0.01,,Unknown,50,2012-11-10 11:52:00
6:52 AM,23.0,21.0,92,29.86,-9999.0,NNE,9.2,-,0.04,,Unknown,30,2012-11-10 12:52:00
7:52 AM,21.9,19.9,92,29.85,-9999.0,NNE,10.4,16.1,0.08,,Unknown,20,2012-11-10 13:52:00
8:52 AM,21.0,18.0,88,29.87,-9999.0,NNE,8.1,-,0.06,,Unknown,20,2012-11-10 14:52:00
9:52 AM,19.9,17.1,89,29.85,-9999.0,North,6.9,17.3,N/A,,Unknown,10,2012-11-10 15:52:00
10:52 AM,21.0,17.1,85,29.83,-9999.0,North,10.4,18.4,N/A,,Unknown,360,2012-11-10 16:52:00
11:52 AM,21.0,17.1,85,29.84,-9999.0,NNW,16.1,-,N/A,,Unknown,340,2012-11-10 17:52:00
12:52 PM,21.0,19.0,92,29.83,-9999.0,NNW,16.1,-,N/A,,Unknown,340,2012-11-10 18:52:00
1:52 PM,21.0,19.0,92,29.83,-9999.0,NNW,16.1,-,N/A,,Unknown,330,2012-11-10 19:52:00
2:52 PM,21.0,19.0,92,29.80,-9999.0,NNW,16.1,-,0.01,,Unknown,340,2012-11-10 20:52:00
3:52 PM,19.9,17.1,89,29.81,-9999.0,NNW,16.1,-,N/A,,Unknown,340,2012-11-10 21:52:00
4:52 PM,19.9,16.0,85,29.83,-9999.0,NNW,17.3,-,N/A,,Unknown,330,2012-11-10 22:52:00
5:52 PM,18.0,15.1,88,29.86,-9999.0,NW,17.3,-,N/A,,Unknown,320,2012-11-10 23:52:00
6:52 PM,18.0,14.0,84,29.88,-9999.0,NW,18.4,-,0.01,,Unknown,320,2012-11-11 00:52:00
7:52 PM,18.0,14.0,84,29.88,-9999.0,NW,19.6,-,0.01,,Unknown,310,2012-11-11 01:52:00
8:52 PM,17.1,14.0,88,29.89,-9999.0,NW,18.4,26.5,0.01,,Unknown,310,2012-11-11 02:52:00
9:52 PM,16.0,12.9,88,29.87,-9999.0,WNW,18.4,25.3,N/A,,Unknown,300,2012-11-11 03:52:00
10:52 PM,15.1,10.9,84,29.86,-9999.0,WNW,18.4,28.8,N/A,,Unknown,290,2012-11-11 04:52:00
11:52 PM,15.1,10.9,84,29.87,-9999.0,WNW,16.1,-,N/A,,Unknown,300,2012-11-11 05:52:00